{"data":{"norad_id":56132,"intl_designator":"2023-046AS","name":"STARLINK-6071","alt_names":[],"object_type":"PAYLOAD","status":"ACTIVE","operator":null,"country":"US","launch_date":"2023-03-29","launch_site_code":"AFETR","launch_vehicle":null,"mission":null,"orbit_class":"UNKNOWN","rcs_meters":null,"size_class":null,"mass_kg":null,"dimensions":null,"purposes":["comms"],"wikipedia_slug":null,"has_3d_model":false,"image_url":null,"decayed_at":null,"tle_current":{"epoch":"2026-05-25T04:32:52.410336Z","epoch_age_seconds":62268,"freshness":"FRESH","line1":"1 56132U 23046AS  26145.18949549  .00002833  00000+0  11246-3 0  9991","line2":"2 56132  43.0054  74.6289 0001392 296.9480  63.1229 15.27568139173904","mean_motion":15.27568139,"eccentricity":0.0001392,"inclination_deg":43.0054,"raan_deg":74.6289,"arg_perigee_deg":296.948,"mean_anomaly_deg":63.1229,"bstar":0.00011246,"rev_number":17390,"period_min":94.26748065999,"perigee_km":482.12953032199,"apogee_km":484.03969441887,"semimajor_km":6861.2216123704,"source":"CELESTRAK","updated_at":"2026-05-25T13:38:17.960888Z"}}}